SKYSAT-C9 (42989 NORAD) Tracking and Keplerian Element Data

This shows tracking and keplerian element data for the satellite.

Feedback or suggestion? Click here.




ElementValue
Catalog42989
NameSKYSAT-C9
Epoch Orbit3935
Epoch Day198.87309213
Epoch Year2018
RAAN312.6281
Inclination97.4076
Eccentricity0.0003275
Argument of Perigee49.014
Mean Anonmoly311.1378
Mean Motion15.2154464
Decay Rate4.09E-06
L11 42989U 17068C 18198.87309213 .00000409 00000-0 21207-4 0 9993
L22 42989 97.4076 312.6281 0003275 49.0140 311.1378 15.21544640 39351

Live tracking and technical data element details for SKYSAT-C9 (NORAD 42989). SKYSAT-C9 can be tracked NOW for your location showing map with azimuth and elevation plus other details from your city location.

Track the satellite on the map from your city or location and see movement details for azimuth, elevation, latitude, longitude, range, height, and movement on the map or in text.







IsCatalogInMostPopularTable: catalog: 42989, numindb: 88
Update: records affected: 1



GetName: 42989 SKYSAT-C9

Hit Count: updated at: Thu, 19 Jul 2018 21:12:08 GMT